{"data":{"norad_id":65905,"epoch":"2026-05-25T01:00:22.374432Z","epoch_age_seconds":74627,"freshness":"FRESH","line1":"1 65905U 25224Z   26145.04192563  .00018986  00000+0  65125-3 0  9991","line2":"2 65905  53.1602  16.7296 0001182  73.2416 286.8714 15.30212856 36514","mean_motion":15.30212856,"eccentricity":0.0001182,"inclination_deg":53.1602,"raan_deg":16.7296,"arg_perigee_deg":73.2416,"mean_anomaly_deg":286.8714,"bstar":0.00065125,"rev_number":3651,"period_min":94.104555085505,"perigee_km":474.36662231193,"apogee_km":475.98674566683,"semimajor_km":6853.3136839894,"source":"CELESTRAK","updated_at":"2026-05-25T13:38:20.984190Z"}}